User: anonymous   Login
Location: Gro�sch�nbrunn
(49.5760°N, 11.8868°E)
Time: 01:50:06
(UTC+00:00)
Language:

DMSP B5D2-2 - Orbit

View from above orbital plane
View from above orbital plane
View from above satellite
View from above satellite

Ground track
Ground track

The orbit data is extracted from the following two-line orbital elements,

1 14506U 83113A   20338.16481696  .00000058  00000-0  39799-4 0  9993
2 14506  98.3121 182.6891 0012397  85.5824  22.2108 14.28122156926757
Epoch (UTC): 03 December 2020 03:57:20
Eccentricity: 0.0012397
inclination: 98.3121°
perigee height: 789 km
apogee height: 807 km
right ascension of ascending node: 182.6891°
argument of perigee: 85.5824°
revolutions per day: 14.28122156
mean anomaly at epoch: 22.2108°
orbit number at epoch: 92675

The dashed part of the orbit path shows where the satellite is in the earth's shadow,  

DLR